• In India
  • List of Countries
  • For 7 days
  • Water Temperature
  • Satellite Maps
  • Weather Map
  • Weather Widgets
  • user-avatar
    Login

    Hourly Weather Poputne

    Today, 19 November, Monday

    Time Temperature Precipitation Wind Pressure Humidity
    00:00 -2°C° 0 mm 2 mps 754 mmHg 57%
    01:00 -3°C° 0 mm 2 mps 754 mmHg 60%
    02:00 -1°C° 0 mm 1 mps 754 mmHg 62%
    03:00 -1°C° 0 mm 1 mps 754 mmHg 63%
    04:00 -3°C° 0 mm 2 mps 754 mmHg 64%
    05:00 -3°C° 0 mm 2 mps 754 mmHg 65%
    06:00 -3°C° 0 mm 2 mps 754 mmHg 64%
    07:00 -4°C° 0 mm 3 mps 754 mmHg 63%
    08:00 -2°C° 0 mm 3 mps 754 mmHg 61%
    09:00 -1°C° 0 mm 3 mps 754 mmHg 57%
    10:00 -1°C° 0 mm 4 mps 754 mmHg 54%
    11:00 0°C° 0 mm 4 mps 755 mmHg 50%
    12:00 +1°C° 0 mm 4 mps 754 mmHg 51%
    13:00 +1°C° 0 mm 4 mps 754 mmHg 52%
    14:00 +1°C° 0 mm 4 mps 754 mmHg 53%
    15:00 +1°C° 0 mm 4 mps 754 mmHg 56%
    16:00 0°C° 0 mm 4 mps 753 mmHg 58%
    17:00 0°C° 0 mm 5 mps 753 mmHg 61%
    18:00 0°C° 0 mm 5 mps 753 mmHg 63%
    19:00 -1°C° 0 mm 5 mps 752 mmHg 65%
    20:00 -1°C° 0 mm 5 mps 752 mmHg 67%
    21:00 -1°C° 0.2 mm 5 mps 752 mmHg 69%
    22:00 -1°C° 0.2 mm 5 mps 752 mmHg 71%
    23:00 -2°C° 0.2 mm 5 mps 752 mmHg 73%

    Tomorrow, 20 November, Tuesday

    Time Temperature Precipitation Wind Pressure Humidity
    00:00 -2°C° 0.3 mm 5 mps 751 mmHg 75%
    01:00 -3°C° 0.3 mm 6 mps 751 mmHg 78%
    02:00 -3°C° 0.3 mm 6 mps 751 mmHg 80%
    03:00 -3°C° 0.4 mm 6 mps 750 mmHg 81%
    04:00 -3°C° 0.4 mm 6 mps 750 mmHg 81%
    05:00 -3°C° 0.4 mm 6 mps 750 mmHg 82%
    06:00 -3°C° 0.4 mm 6 mps 750 mmHg 82%
    07:00 -3°C° 0.4 mm 6 mps 750 mmHg 83%
    08:00 -3°C° 0.4 mm 6 mps 750 mmHg 83%
    09:00 -3°C° 0.7 mm 6 mps 750 mmHg 85%
    10:00 -3°C° 0.7 mm 6 mps 750 mmHg 86%
    11:00 -3°C° 0.7 mm 6 mps 750 mmHg 87%
    12:00 -3°C° 0.5 mm 7 mps 750 mmHg 86%
    13:00 -3°C° 0.5 mm 7 mps 750 mmHg 84%
    14:00 -3°C° 0.5 mm 7 mps 750 mmHg 83%
    15:00 -4°C° 0 mm 6 mps 751 mmHg 81%
    16:00 -4°C° 0 mm 5 mps 751 mmHg 79%
    17:00 -3°C° 0 mm 4 mps 751 mmHg 77%
    18:00 -4°C° 0 mm 4 mps 752 mmHg 77%
    19:00 -4°C° 0 mm 4 mps 752 mmHg 77%
    20:00 -5°C° 0 mm 4 mps 753 mmHg 77%
    21:00 -5°C° 0 mm 4 mps 753 mmHg 80%
    22:00 -5°C° 0 mm 3 mps 753 mmHg 83%
    23:00 -6°C° 0 mm 3 mps 753 mmHg 86%

    Day after tomorrow, 21 November, Wednesday

    Time Temperature Precipitation Wind Pressure Humidity
    00:00 -6°C° 0 mm 3 mps 754 mmHg 87%
    01:00 -6°C° 0 mm 3 mps 754 mmHg 89%
    02:00 -6°C° 0 mm 3 mps 754 mmHg 90%
    03:00 -6°C° 0 mm 3 mps 754 mmHg 91%
    04:00 -7°C° 0 mm 3 mps 754 mmHg 92%
    05:00 -7°C° 0 mm 3 mps 753 mmHg 93%
    06:00 -6°C° 0 mm 3 mps 754 mmHg 93%
    07:00 -6°C° 0 mm 3 mps 754 mmHg 93%
    08:00 -6°C° 0 mm 3 mps 754 mmHg 93%
    09:00 -5°C° 0 mm 3 mps 754 mmHg 90%
    10:00 -4°C° 0 mm 3 mps 754 mmHg 88%
    11:00 -2°C° 0 mm 3 mps 754 mmHg 85%
    12:00 -1°C° 0 mm 3 mps 753 mmHg 84%
    13:00 -1°C° 0 mm 3 mps 753 mmHg 82%
    14:00 -1°C° 0 mm 3 mps 753 mmHg 81%
    15:00 -2°C° 0 mm 2 mps 753 mmHg 82%
    16:00 -3°C° 0 mm 2 mps 753 mmHg 83%
    17:00 -4°C° 0 mm 2 mps 752 mmHg 84%
    18:00 -4°C° 0 mm 2 mps 753 mmHg 84%
    19:00 -4°C° 0 mm 2 mps 753 mmHg 84%
    20:00 -5°C° 0 mm 2 mps 753 mmHg 84%
    21:00 -5°C° 0 mm 2 mps 753 mmHg 85%
    22:00 -5°C° 0 mm 2 mps 753 mmHg 85%
    23:00 -5°C° 0 mm 2 mps 753 mmHg 86%

    22 November, Thursday

    Time Temperature Precipitation Wind Pressure Humidity
    00:00 -5°C° 0 mm 2 mps 753 mmHg 87%
    01:00 -5°C° 0 mm 2 mps 753 mmHg 87%
    02:00 -6°C° 0 mm 2 mps 753 mmHg 88%
    03:00 -6°C° 0 mm 2 mps 753 mmHg 89%
    04:00 -6°C° 0 mm 2 mps 753 mmHg 90%
    05:00 -6°C° 0 mm 2 mps 753 mmHg 91%
    06:00 -6°C° 0 mm 2 mps 753 mmHg 90%
    07:00 -6°C° 0 mm 2 mps 753 mmHg 89%
    08:00 -5°C° 0 mm 2 mps 753 mmHg 88%
    09:00 -5°C° 0 mm 3 mps 753 mmHg 83%
    10:00 -4°C° 0 mm 3 mps 753 mmHg 78%
    11:00 -2°C° 0 mm 3 mps 753 mmHg 72%
    12:00 -2°C° 0 mm 3 mps 753 mmHg 72%
    13:00 -2°C° 0 mm 3 mps 753 mmHg 72%
    14:00 -1°C° 0 mm 3 mps 753 mmHg 72%
    15:00 -4°C° 0 mm 3 mps 753 mmHg 75%
    16:00 -5°C° 0 mm 3 mps 753 mmHg 79%
    17:00 -6°C° 0 mm 3 mps 752 mmHg 82%
    18:00 -6°C° 0 mm 3 mps 753 mmHg 83%
    19:00 -6°C° 0 mm 3 mps 753 mmHg 83%
    20:00 -6°C° 0 mm 3 mps 753 mmHg 83%
    21:00 -6°C° 0 mm 3 mps 753 mmHg 84%
    22:00 -6°C° 0 mm 3 mps 753 mmHg 84%
    23:00 -6°C° 0 mm 3 mps 753 mmHg 85%

    23 November, Friday

    Time Temperature Precipitation Wind Pressure Humidity
    00:00 -7°C° 0 mm 3 mps 753 mmHg 87%
    01:00 -8°C° 0 mm 4 mps 753 mmHg 89%
    02:00 -8°C° 0 mm 4 mps 753 mmHg 91%
    03:00 -8°C° 0 mm 4 mps 753 mmHg 92%
    04:00 -7°C° 0 mm 3 mps 753 mmHg 93%
    05:00 -7°C° 0 mm 3 mps 753 mmHg 94%
    06:00 -7°C° 0 mm 3 mps 754 mmHg 92%
    07:00 -7°C° 0 mm 3 mps 754 mmHg 91%
    08:00 -6°C° 0 mm 3 mps 755 mmHg 90%
    09:00 -5°C° 0 mm 3 mps 756 mmHg 86%
    10:00 -4°C° 0 mm 3 mps 756 mmHg 81%
    11:00 -2°C° 0 mm 4 mps 757 mmHg 77%
    12:00 -1°C° 0 mm 3 mps 757 mmHg 76%
    13:00 -1°C° 0 mm 3 mps 757 mmHg 75%
    14:00 +1°C° 0 mm 2 mps 758 mmHg 75%
    15:00 -1°C° 0 mm 2 mps 758 mmHg 77%
    16:00 -3°C° 0 mm 2 mps 758 mmHg 78%
    17:00 -4°C° 0 mm 2 mps 759 mmHg 80%
    18:00 -4°C° 0 mm 2 mps 759 mmHg 79%
    19:00 -4°C° 0 mm 2 mps 760 mmHg 79%
    20:00 -5°C° 0 mm 2 mps 760 mmHg 78%
    21:00 -3°C° 0 mm 1 mps 760 mmHg 77%
    22:00 -3°C° 0 mm 1 mps 760 mmHg 76%
    23:00 -3°C° 0 mm 1 mps 760 mmHg 75%

    24 November, Saturday

    Time Temperature Precipitation Wind Pressure Humidity
    00:00 -4°C° 0 mm 1 mps 760 mmHg 74%
    01:00 -4°C° 0 mm 1 mps 760 mmHg 74%
    02:00 -4°C° 0 mm 1 mps 760 mmHg 74%
    03:00 -4°C° 0 mm 1 mps 760 mmHg 74%
    04:00 -4°C° 0 mm 1 mps 760 mmHg 74%
    05:00 -4°C° 0 mm 1 mps 760 mmHg 74%
    06:00 -4°C° 0 mm 1 mps 760 mmHg 74%
    07:00 -4°C° 0 mm 1 mps 760 mmHg 74%
    08:00 -4°C° 0 mm 1 mps 760 mmHg 73%
    09:00 -3°C° 0 mm 1 mps 760 mmHg 70%
    10:00 -2°C° 0 mm 1 mps 760 mmHg 66%
    11:00 0°C° 0 mm 1 mps 760 mmHg 62%
    12:00 0°C° 0 mm 1 mps 759 mmHg 63%
    13:00 0°C° 0 mm 1 mps 759 mmHg 64%
    14:00 0°C° 0 mm 1 mps 758 mmHg 64%
    15:00 -1°C° 0 mm 1 mps 758 mmHg 68%
    16:00 -2°C° 0 mm 1 mps 758 mmHg 72%
    17:00 -3°C° 0 mm 1 mps 758 mmHg 75%
    18:00 -3°C° 0 mm 1 mps 757 mmHg 76%
    19:00 -3°C° 0 mm 1 mps 757 mmHg 76%
    20:00 -4°C° 0 mm 1 mps 757 mmHg 76%
    21:00 -4°C° 0 mm 1 mps 757 mmHg 77%
    22:00 -4°C° 0 mm 1 mps 756 mmHg 77%
    23:00 -4°C° 0 mm 1 mps 756 mmHg 78%
    Show more